Zurück zum Katalog

BREEZE-M DEB

AktivHEO
NORAD 38648·DEBRIS·🇷🇺 Russia

Gestartet Mar 14, 2008 von Baikonur Cosmodrome

Loading…

Nächste Überflüge (nächste 24 Stunden)

TLE

AktuellSource: Space-Track

Epoche: Sep 14, 2026, 01:20 UTC

1 38648U 08011CX  26257.05567883 -.00000312  00000-0 -26391-2 0  9994
2 38648  49.1798 285.0880 6519039 294.1944  22.2347  3.03317994176593

Verfolge BREEZE-M DEB in Echtzeit mit AllMySat

Download on the App Store